| time (UTC) | temp C | wind direction | speed KPH | gust KPH | rain 1hr cm | rain 24hr cm | rain mn cm | humidity % | barometer mb |
| 20260507030047 | 6 | 268 | 8.0 | 14.5 | 0.00 | 0.91 | 0.84 | 81 | 1011.6 |
| 20260507024545 | 6 | 262 | 4.8 | 16.1 | 0.00 | 1.04 | 0.84 | 89 | 1011.5 |
| 20260507023044 | 6 | 271 | 9.7 | 17.7 | 0.00 | 1.04 | 0.84 | 89 | 1011.5 |
| 20260507021545 | 6 | 265 | 6.4 | 17.7 | 0.00 | 1.04 | 0.84 | 89 | 1011.3 |
| 20260507020055 | 6 | 275 | 9.7 | 16.1 | 0.00 | 1.04 | 0.84 | 90 | 1011.3 |
| 20260507014551 | 6 | 257 | 4.8 | 19.3 | 0.00 | 1.09 | 0.84 | 90 | 1011.5 |
| 20260507013051 | 6 | 266 | 4.8 | 14.5 | 0.00 | 1.09 | 0.84 | 91 | 1011.4 |
| 20260507011545 | 6 | 251 | 4.8 | 14.5 | 0.00 | 1.09 | 0.84 | 90 | 1011.2 |
| 20260507010054 | 6 | 242 | 3.2 | 16.1 | 0.00 | 1.09 | 0.84 | 90 | 1011.2 |
| 20260507004551 | 6 | 254 | 6.4 | 12.9 | 0.00 | 1.14 | 0.84 | 90 | 1011.2 |
| 20260507003039 | 6 | 250 | 4.8 | 14.5 | 0.00 | 1.14 | 0.84 | 89 | 1010.9 |
| 20260507001550 | 6 | 244 | 6.4 | 17.7 | 0.00 | 1.14 | 0.84 | 88 | 1011.0 |
| 20260507000045 | 6 | 262 | 8.0 | 17.7 | 0.00 | 1.14 | 0.84 | 88 | 1011.0 |
| 20260506234545 | 6 | 242 | 9.7 | 16.1 | 0.00 | 1.24 | 0.84 | 88 | 1010.8 |
| 20260506233056 | 6 | 284 | 6.4 | 20.9 | 0.00 | 1.24 | 0.84 | 89 | 1010.7 |
| 20260506231543 | 6 | 246 | 9.7 | 20.9 | 0.00 | 1.24 | 0.84 | 89 | 1010.4 |
| 20260506230053 | 6 | 246 | 11.3 | 20.9 | 0.00 | 1.24 | 0.84 | 89 | 1010.3 |
| 20260506224546 | 6 | 236 | 11.3 | 20.9 | 0.00 | 1.32 | 0.84 | 89 | 1010.3 |
| 20260506223044 | 6 | 249 | 6.4 | 17.7 | 0.00 | 1.32 | 0.84 | 89 | 1010.1 |
| 20260506221553 | 7 | 243 | 8.0 | 16.1 | 0.00 | 1.32 | 0.84 | 88 | 1009.9 |
| 20260506220044 | 7 | 261 | 8.0 | 19.3 | 0.00 | 1.32 | 0.84 | 88 | 1009.9 |
| 20260506214543 | 7 | 248 | 8.0 | 14.5 | 0.00 | 1.32 | 0.84 | 88 | 1010.0 |
| 20260506213038 | 8 | 234 | 6.4 | 14.5 | 0.00 | 1.32 | 0.84 | 87 | 1009.8 |
| 20260506211554 | 8 | 281 | 4.8 | 14.5 | 0.00 | 1.32 | 0.84 | 86 | 1009.7 |
| 20260506210045 | 8 | 252 | 4.8 | 17.7 | 0.00 | 1.32 | 0.84 | 86 | 1009.8 |
| 20260506204545 | 8 | 251 | 9.7 | 17.7 | 0.00 | 1.32 | 0.84 | 86 | 1009.6 |
| 20260506203043 | 8 | 240 | 9.7 | 17.7 | 0.00 | 1.32 | 0.84 | 88 | 1009.4 |
| 20260506201543 | 8 | 235 | 9.7 | 16.1 | 0.00 | 1.32 | 0.84 | 87 | 1009.3 |
| 20260506200050 | 8 | 224 | 8.0 | 14.5 | 0.00 | 1.32 | 0.84 | 86 | 1009.6 |
| 20260506194549 | 8 | 246 | 9.7 | 16.1 | 0.00 | 1.32 | 0.84 | 87 | 1009.5 |
| 20260506193044 | 8 | 232 | 9.7 | 17.7 | 0.00 | 1.32 | 0.84 | 86 | 1009.6 |
| 20260506191543 | 8 | 242 | 8.0 | 16.1 | 0.00 | 1.32 | 0.84 | 85 | 1009.6 |
| 20260506190044 | 9 | 303 | 1.6 | 6.4 | 0.00 | 1.32 | 0.84 | 82 | 1009.2 |
| 20260506184544 | 8 | 259 | 3.2 | 11.3 | 0.00 | 1.32 | 0.84 | 82 | 1009.5 |
| 20260506183039 | 8 | 0 | 1.6 | 11.3 | 0.00 | 1.32 | 0.84 | 82 | 1009.5 |
| 20260506181545 | 8 | 0 | 0.0 | 3.2 | 0.00 | 1.32 | 0.84 | 83 | 1009.8 |
| 20260506180046 | 8 | 14 | 1.6 | 6.4 | 0.00 | 1.32 | 0.84 | 82 | 1009.7 |
| 20260506174546 | 8 | 0 | 1.6 | 8.0 | 0.00 | 1.32 | 0.84 | 84 | 1009.6 |
| 20260506173049 | 8 | 352 | 1.6 | 8.0 | 0.00 | 1.32 | 0.84 | 87 | 1009.6 |
| 20260506171553 | 7 | 11 | 1.6 | 6.4 | 0.00 | 1.32 | 0.84 | 88 | 1009.8 |
| 20260506170059 | 7 | 352 | 1.6 | 6.4 | 0.00 | 1.32 | 0.84 | 88 | 1009.6 |
| 20260506164554 | 7 | 0 | 1.6 | 8.0 | 0.00 | 1.32 | 0.84 | 88 | 1009.5 |
| 20260506163045 | 7 | 30 | 3.2 | 8.0 | 0.00 | 1.32 | 0.84 | 88 | 1009.5 |
| 20260506161544 | 7 | 66 | 1.6 | 9.7 | 0.00 | 1.32 | 0.84 | 89 | 1009.4 |
| 20260506160049 | 7 | 20 | 3.2 | 12.9 | 0.00 | 1.32 | 0.84 | 90 | 1009.3 |
| 20260506154551 | 7 | 33 | 1.6 | 8.0 | 0.00 | 1.32 | 0.84 | 92 | 1009.5 |
| 20260506153046 | 6 | 21 | 4.8 | 11.3 | 0.00 | 1.32 | 0.84 | 93 | 1009.5 |
| 20260506151545 | 6 | 28 | 6.4 | 14.5 | 0.00 | 1.32 | 0.84 | 94 | 1009.6 |
| 20260506150045 | 6 | 33 | 4.8 | 16.1 | 0.00 | 1.32 | 0.84 | 94 | 1009.5 |
| 20260506144546 | 6 | 0 | 1.6 | 11.3 | 0.03 | 1.32 | 0.84 | 95 | 1009.4 |
| 20260506143042 | 6 | 54 | 0.0 | 6.4 | 0.03 | 1.32 | 0.84 | 96 | 1009.3 |
| 20260506141601 | 6 | 36 | 4.8 | 12.9 | 0.03 | 1.32 | 0.84 | 95 | 1009.3 |
| 20260506140048 | 6 | 69 | 3.2 | 12.9 | 0.03 | 1.32 | 0.84 | 96 | 1009.3 |
| 20260506134546 | 6 | 90 | 3.2 | 12.9 | 0.03 | 1.30 | 0.81 | 97 | 1009.1 |
| 20260506133045 | 6 | 90 | 4.8 | 9.7 | 0.05 | 1.30 | 0.81 | 97 | 1009.1 |
| 20260506131544 | 5 | 22 | 3.2 | 8.0 | 0.05 | 1.30 | 0.81 | 98 | 1009.0 |
| 20260506130045 | 5 | 60 | 1.6 | 8.0 | 0.10 | 1.30 | 0.81 | 98 | 1008.8 |
| 20260506124543 | 5 | 52 | 1.6 | 4.8 | 0.08 | 1.27 | 0.79 | 98 | 1008.9 |
| 20260506123042 | 5 | 0 | 0.0 | 3.2 | 0.05 | 1.24 | 0.76 | 98 | 1009.0 |
| 20260506121555 | 5 | 0 | 1.6 | 6.4 | 0.05 | 1.22 | 0.74 | 98 | 1009.1 |
| 20260506120109 | 5 | 61 | 3.2 | 6.4 | 0.03 | 1.19 | 0.71 | 98 | 1009.1 |
| 20260506114547 | 5 | 62 | 1.6 | 6.4 | 0.03 | 1.19 | 0.71 | 98 | 1009.2 |
| 20260506113044 | 5 | 42 | 0.0 | 4.8 | 0.05 | 1.19 | 0.71 | 98 | 1009.1 |
| 20260506111541 | 5 | 97 | 1.6 | 8.0 | 0.05 | 1.17 | 0.69 | 98 | 1008.6 |
| 20260506110048 | 5 | 120 | 1.6 | 6.4 | 0.05 | 1.17 | 0.69 | 98 | 1008.7 |
| 20260506104547 | 5 | 0 | 0.0 | 1.6 | 0.10 | 1.17 | 0.69 | 98 | 1009.0 |
| 20260506103044 | 5 | 0 | 0.0 | 0.0 | 0.10 | 1.14 | 0.66 | 98 | 1009.0 |
| 20260506101548 | 5 | 0 | 0.0 | 3.2 | 0.13 | 1.12 | 0.64 | 98 | 1009.0 |
| 20260506100054 | 5 | 0 | 0.0 | 1.6 | 0.15 | 1.12 | 0.64 | 98 | 1009.0 |
| 20260506094546 | 5 | 0 | 0.0 | 0.0 | 0.13 | 1.07 | 0.58 | 98 | 1009.1 |
| 20260506093051 | 5 | 0 | 0.0 | 0.0 | 0.10 | 1.02 | 0.53 | 98 | 1009.4 |
| 20260506091546 | 5 | 0 | 0.0 | 1.6 | 0.13 | 0.99 | 0.51 | 97 | 1009.3 |
| 20260506090045 | 5 | 0 | 0.0 | 0.0 | 0.15 | 0.97 | 0.48 | 98 | 1009.0 |
| 20260506084544 | 5 | 0 | 0.0 | 0.0 | 0.18 | 0.97 | 0.46 | 98 | 1009.2 |
| 20260506083045 | 5 | 0 | 0.0 | 0.0 | 0.23 | 0.94 | 0.43 | 98 | 1009.3 |
| 20260506081552 | 5 | 0 | 0.0 | 3.2 | 0.18 | 0.89 | 0.38 | 97 | 1009.2 |
| 20260506073050 | 5 | 0 | 0.0 | 0.0 | 0.05 | 0.74 | 0.20 | 97 | 1009.5 |
| 20260506071550 | 5 | 0 | 0.0 | 0.0 | 0.05 | 0.74 | 0.20 | 97 | 1009.5 |
| 20260506070109 | 5 | 0 | 0.0 | 3.2 | 0.03 | 0.71 | 0.18 | 97 | 1009.5 |
| 20260506061545 | 6 | 209 | 1.6 | 9.7 | 0.05 | 0.69 | 0.15 | 97 | 1009.9 |
| 20260506044556 | 6 | 188 | 4.8 | 14.5 | 0.10 | 0.79 | 0.08 | 97 | 1009.9 |
| 20260506043046 | 6 | 201 | 4.8 | 8.0 | 0.10 | 0.76 | 0.05 | 97 | 1009.7 |
| 20260506041551 | 6 | 209 | 1.6 | 8.0 | 0.10 | 0.74 | 0.03 | 97 | 1009.9 |
| 20260506040058 | 6 | 210 | 4.8 | 8.0 | 0.08 | 0.71 | 0.00 | 96 | 1009.9 |
| 20260506034549 | 6 | 207 | 3.2 | 9.7 | 0.08 | 0.69 | 0.69 | 96 | 1010.1 |
| 20260506033046 | 6 | 225 | 4.8 | 11.3 | 0.10 | 0.66 | 0.66 | 96 | 1010.3 |
| 20260506031556 | 6 | 216 | 6.4 | 12.9 | 0.10 | 0.64 | 0.64 | 96 | 1010.0 |